Weather observations for the past three days for
Slayton Municipal Airport
| Date | Time (cdt) | Wind (mph) | Vis. (mi.) | Weather | Sky Cond. | Temperature (ºF) | Relative Humidity | Wind Chill (°F) | Heat Index (°F) | Pressure | Precipitation (in) | ||||||
|---|---|---|---|---|---|---|---|---|---|---|---|---|---|---|---|---|---|
| Air | Dwpt | 6 hour | altimeter (in) | sea level (mb) | 1 hr | 3 hr | 6 hr | ||||||||||
| Max. | Min. | ||||||||||||||||
| 07 | 02:13 | E 7 | 10.00 | Partly Cloudy | SCT100 | 39.6 | 23.9 | 54% | 35 | 29.92 | 0.0 | ||||||
| 07 | 01:53 | E 8 | 10.00 | Mostly Cloudy | SCT090 BKN110 | 39.2 | 23.9 | 54% | 34 | 29.92 | 0.0 | ||||||
| 07 | 01:33 | E 7 | 10.00 | Mostly Cloudy | SCT070 BKN090 BKN120 | 40.1 | 24.1 | 53% | 36 | 29.94 | 0.0 | ||||||
| 07 | 01:13 | E 6 | 10.00 | Mostly Cloudy | SCT085 BKN120 | 40.1 | 23.9 | 52% | 37 | 29.94 | 0.0 | ||||||
| 07 | 00:53 | E 7 | 10.00 | Mostly Cloudy | SCT085 BKN120 | 41 | 23.9 | 51.1 | 37.9 | 51% | 37 | 29.95 | 0.0 | ||||
| 07 | 00:33 | NE 5 | 10.00 | Mostly Cloudy | SCT085 BKN120 | 40.3 | 24.8 | 54% | 38 | 29.96 | 0.0 | ||||||
| 07 | 00:13 | NE 3 | 10.00 | Mostly Cloudy | SCT075 SCT085 BKN110 | 39.4 | 24.6 | 56% | 29.96 | 0.0 | |||||||
| 06 | 23:53 | NE 3 | 10.00 | Mostly Cloudy | BKN100 | 38.3 | 24.8 | 58% | 29.96 | 0.0 | |||||||
| 06 | 23:33 | Calm | 10.00 | Mostly Cloudy | BKN100 | 37.9 | 23.5 | 56% | 29.96 | 0.0 | |||||||
| 06 | 23:13 | Calm | 10.00 | Fair | CLR | 40.5 | 23.5 | 51% | 29.96 | 0.0 | |||||||
| 06 | 22:53 | NE 3 | 10.00 | Fair | CLR | 40.8 | 23 | 49% | 29.96 | 0.0 | |||||||
| 06 | 22:33 | NE 5 | 10.00 | Fair | CLR | 41.7 | 23.4 | 48% | 39 | 29.96 | 0.0 | ||||||
| 06 | 22:13 | NE 5 | 10.00 | Partly Cloudy | SCT100 | 42.4 | 23.5 | 47% | 40 | 29.97 | 0.0 | ||||||
| 06 | 21:53 | NE 3 | 10.00 | Partly Cloudy | SCT095 | 43.5 | 23.5 | 45% | 29.97 | 0.0 | |||||||
| 06 | 21:33 | NE 5 | 10.00 | Partly Cloudy | SCT095 | 44.1 | 23.2 | 44% | 42 | 29.97 | 0.0 | ||||||
| 06 | 21:13 | NE 5 | 10.00 | Partly Cloudy | SCT090 | 45.5 | 23.4 | 42% | 44 | 29.96 | 0.0 | ||||||
| 06 | 20:53 | NE 3 | 10.00 | Mostly Cloudy | BKN090 | 46.2 | 22.6 | 39% | 29.96 | 0.0 | |||||||
| 06 | 20:33 | N 5 | 7.00 | Partly Cloudy | SCT090 | 46.4 | 23 | 40% | 45 | 29.95 | 0.0 | ||||||
| 06 | 20:13 | N 6 | 10.00 | Mostly Cloudy | BKN080 | 48.2 | 22.8 | 37% | 46 | 29.95 | 0.0 | ||||||
| 06 | 19:53 | NW 8 | 10.00 | Partly Cloudy | SCT080 | 49.5 | 22.5 | 35% | 47 | 29.96 | 0.0 | ||||||
| 06 | 19:33 | NW 12 | 10.00 | Mostly Cloudy | BKN080 | 50.4 | 21.9 | 33% | 29.96 | 0.0 | |||||||
| 06 | 19:13 | NW 9 | 10.00 | Mostly Cloudy | BKN080 | 50.9 | 22.1 | 32% | 29.96 | 0.0 | |||||||
| 06 | 18:53 | NW 12 G 17 | 10.00 | Mostly Cloudy | SCT070 BKN080 | 50.9 | 22.3 | 52.5 | 46.8 | 33% | 29.97 | 0.0 | |||||
| 06 | 18:33 | NW 7 G 20 | 10.00 | Mostly Cloudy | BKN080 | 51.6 | 22.5 | 32% | 29.97 | 0.0 | |||||||
| 06 | 18:13 | NW 12 | 10.00 | Overcast | SCT070 OVC080 | 51.6 | 22.1 | 31% | 29.97 | 0.0 | |||||||
| 06 | 17:53 | NW 14 G 20 | 10.00 | Overcast | OVC070 | 50.9 | 22.1 | 32% | 29.97 | 0.0 | |||||||
| 06 | 17:33 | NW 13 G 17 | 10.00 | Overcast | OVC080 | 50.7 | 22.3 | 33% | 29.98 | 0.0 | |||||||
| 06 | 17:13 | W 17 G 24 | 10.00 | Mostly Cloudy | BKN075 | 51.6 | 21.9 | 31% | 29.98 | 0.0 | |||||||
| 06 | 16:53 | W 12 G 23 | 10.00 | Mostly Cloudy | BKN070 | 51.8 | 21.6 | 31% | 29.99 | 0.0 | |||||||
| 06 | 16:33 | NW 18 G 23 | 10.00 | Overcast | OVC070 | 51.3 | 21.7 | 31% | 29.99 | 0.0 | |||||||
| 06 | 16:13 | NW 18 G 24 | 10.00 | Overcast | SCT070 OVC080 | 51.3 | 21.9 | 32% | 29.99 | 0.0 | |||||||
| 06 | 15:53 | NW 15 G 24 | 10.00 | Overcast | OVC070 | 50.7 | 22.1 | 33% | 30 | 0.0 | |||||||
| 06 | 15:33 | W 10 | 10.00 | Overcast | OVC060 | 50.4 | 21.6 | 32% | 30.01 | 0.0 | |||||||
| 06 | 15:13 | NW 12 G 20 | 10.00 | Overcast | OVC060 | 50.2 | 22.8 | 34% | 30.01 | 0.0 | |||||||
| 06 | 14:53 | W 17 G 23 | 10.00 | Mostly Cloudy | BKN060 BKN070 | 49.6 | 23 | 35% | 44 | 30.02 | 0.0 | ||||||
| 06 | 14:33 | NW 20 G 23 | 10.00 | Mostly Cloudy | BKN060 | 49.8 | 21.9 | 33% | 44 | 30.02 | 0.0 | ||||||
| 06 | 14:13 | W 12 G 29 | 10.00 | Overcast | OVC060 | 48.7 | 21.7 | 34% | 44 | 30.02 | 0.0 | ||||||
| 06 | 13:53 | NW 9 G 22 | 10.00 | Mostly Cloudy | BKN060 | 49.3 | 22.1 | 34% | 46 | 30.03 | 0.0 | ||||||
| 06 | 13:33 | NW 18 G 24 | 10.00 | Overcast | OVC060 | 47.5 | 21.9 | 36% | 41 | 30.03 | 0.0 | ||||||
| 06 | 13:13 | NW 17 G 25 | 10.00 | Overcast | OVC050 | 47.7 | 23 | 38% | 42 | 30.04 | 0.0 | ||||||
| 06 | 12:53 | NW 18 G 26 | 10.00 | Overcast | OVC050 | 46.8 | 22.6 | 46.8 | 37.4 | 39% | 40 | 30.04 | 0.0 | ||||
| 06 | 12:33 | NW 18 G 23 | 10.00 | Overcast | OVC050 | 45.3 | 21.9 | 40% | 38 | 30.04 | 0.0 | ||||||
| 06 | 12:13 | NW 15 G 22 | 10.00 | Overcast | OVC050 | 44.8 | 21.6 | 40% | 39 | 30.05 | 0.0 | ||||||
| 06 | 11:53 | NW 18 G 24 | 10.00 | Overcast | OVC050 | 44.2 | 21.7 | 41% | 37 | 30.05 | 0.0 | ||||||
| 06 | 11:33 | NW 16 G 20 | 10.00 | Overcast | OVC060 | 43.2 | 22.1 | 43% | 36 | 30.06 | 0.0 | ||||||
| 06 | 11:13 | W 16 G 23 | 10.00 | Overcast | OVC060 | 43.2 | 22.5 | 44% | 36 | 30.06 | 0.0 | ||||||
| 06 | 10:53 | NW 14 G 23 | 10.00 | Overcast | SCT048 OVC060 | 42.8 | 22.5 | 45% | 36 | 30.06 | 0.0 | ||||||
| 06 | 10:33 | NW 17 G 24 | 10.00 | Overcast | SCT048 OVC060 | 42.6 | 22.3 | 44% | 35 | 30.06 | 0.0 | ||||||
| 06 | 10:13 | W 14 G 22 | 10.00 | Overcast | SCT048 OVC060 | 41.9 | 22.8 | 47% | 35 | 30.06 | 0.0 | ||||||
| 06 | 09:53 | NW 14 | 10.00 | Overcast | SCT044 OVC060 | 41.4 | 22.6 | 47% | 35 | 30.06 | 0.0 | ||||||
| 06 | 09:33 | W 9 G 17 | 10.00 | Overcast | OVC060 | 40.8 | 22.3 | 48% | 36 | 30.06 | 0.0 | ||||||
| 06 | 09:13 | W 12 | 10.00 | Overcast | OVC060 | 40.1 | 23 | 51% | 34 | 30.06 | 0.0 | ||||||
| 06 | 08:53 | NW 10 | 10.00 | Overcast | OVC060 | 39.9 | 24.3 | 54% | 34 | 30.06 | 0.0 | ||||||
| 06 | 08:33 | W 9 | 10.00 | Overcast | OVC060 | 39.2 | 23.7 | 54% | 34 | 30.06 | 0.0 | ||||||
| 06 | 08:13 | NW 8 | 10.00 | Overcast | OVC070 | 38.7 | 25.2 | 58% | 34 | 30.05 | 0.0 | ||||||
| 06 | 07:53 | NW 10 | 10.00 | Overcast | OVC070 | 38.5 | 25.5 | 60% | 32 | 30.05 | 0.0 | ||||||
| 06 | 07:33 | W 7 | 10.00 | Overcast | OVC070 | 37.9 | 26.1 | 62% | 33 | 30.04 | 0.0 | ||||||
| 06 | 07:13 | NW 6 | 10.00 | Overcast | OVC060 | 37.4 | 26.2 | 64% | 33 | 30.04 | 0.0 | ||||||
| 06 | 06:53 | W 6 | 10.00 | Overcast | OVC060 | 37.4 | 25.9 | 37.4 | 32 | 63% | 33 | 30.03 | 0.0 | ||||
| 06 | 06:33 | W 6 | 10.00 | Overcast | OVC060 | 36.7 | 26.4 | 66% | 33 | 30.03 | 0.0 | ||||||
| 06 | 06:13 | W 3 | 10.00 | Overcast | OVC060 | 36.7 | 26.2 | 66% | 30.01 | 0.0 | |||||||
| 06 | 05:53 | W 5 | 10.00 | Overcast | OVC060 | 36.7 | 26.1 | 65% | 33 | 30.01 | 0.0 | ||||||
| 06 | 05:33 | W 3 | 10.00 | Overcast | OVC060 | 36.5 | 26.2 | 66% | 30.01 | 0.0 | |||||||
| 06 | 05:13 | NW 5 | 10.00 | Overcast | OVC060 | 36.5 | 26.8 | 68% | 33 | 30 | 0.0 | ||||||
| 06 | 04:53 | NW 5 | 10.00 | Overcast | OVC060 | 37.4 | 25.5 | 62% | 34 | 30 | 0.0 | ||||||
| 06 | 04:33 | NW 5 | 10.00 | Overcast | OVC060 | 36.7 | 26.6 | 67% | 33 | 30 | 0.0 | ||||||
| 06 | 04:13 | W 3 | 10.00 | Overcast | OVC060 | 36.9 | 26.2 | 65% | 30.01 | 0.0 | |||||||
| 06 | 03:53 | NW 3 | 10.00 | Overcast | OVC060 | 37.2 | 25.3 | 62% | 30 | 0.0 | |||||||
| 06 | 03:33 | N 5 | 10.00 | Overcast | OVC060 | 36.9 | 25.3 | 63% | 34 | 29.99 | 0.0 | ||||||
| 06 | 03:13 | NW 5 | 10.00 | Overcast | SCT055 OVC070 | 36.7 | 26.2 | 66% | 33 | 29.99 | 0.0 | ||||||
| 06 | 02:53 | NW 6 | 10.00 | Overcast | OVC070 | 34.9 | 26.2 | 71% | 30 | 29.99 | 0.0 | ||||||
| 06 | 02:33 | NW 6 | 10.00 | Overcast | OVC070 | 35.2 | 25.5 | 68% | 31 | 29.99 | 0.0 | ||||||
| 06 | 02:13 | NW 3 | 10.00 | Overcast | OVC070 | 35.8 | 25.7 | 67% | 29.99 | 0.0 | |||||||
| 06 | 01:53 | NW 5 | 10.00 | Overcast | SCT060 OVC070 | 34.5 | 25.3 | 69% | 31 | 29.99 | 0.0 | ||||||
| 06 | 01:33 | NW 6 | 10.00 | Overcast | OVC070 | 33.8 | 24.1 | 68% | 29 | 29.99 | 0.0 | ||||||
| 06 | 01:13 | W 6 | 10.00 | Partly Cloudy | SCT070 | 32.2 | 22.6 | 68% | 27 | 29.99 | 0.0 | ||||||
| 06 | 00:53 | NW 6 | 10.00 | Partly Cloudy | SCT070 | 32 | 22.1 | 47.5 | 32 | 67% | 27 | 29.98 | 0.0 | ||||
| 06 | 00:33 | NW 6 | 10.00 | Mostly Cloudy | BKN075 BKN080 | 32.7 | 22.6 | 66% | 28 | 29.98 | 0.0 | ||||||
| 06 | 00:13 | W 3 | 10.00 | Mostly Cloudy | BKN075 | 33.1 | 21.9 | 64% | 29.98 | 0.0 | |||||||
| 05 | 23:53 | W 5 | 10.00 | Partly Cloudy | SCT075 | 33.8 | 22.6 | 64% | 30 | 29.98 | 0.0 | ||||||
| 05 | 23:33 | W 6 | 10.00 | Partly Cloudy | SCT050 SCT075 | 35.6 | 23 | 60% | 31 | 29.99 | 0.0 | ||||||
| 05 | 23:13 | W 5 | 10.00 | Partly Cloudy | SCT050 SCT065 | 33.8 | 21.7 | 61% | 30 | 29.99 | 0.0 | ||||||
| 05 | 22:53 | NW 5 | 10.00 | Fair | CLR | 35.2 | 21.7 | 58% | 32 | 29.98 | 0.0 | ||||||
| 05 | 22:33 | NW 5 | 10.00 | Fair | CLR | 35.8 | 21.9 | 57% | 32 | 29.97 | 0.0 | ||||||
| 05 | 22:13 | NW 6 | 10.00 | Partly Cloudy | SCT070 | 37.6 | 22.1 | 54% | 34 | 29.96 | 0.0 | ||||||
| 05 | 21:53 | NW 5 | 10.00 | Mostly Cloudy | BKN070 | 39 | 22.3 | 51% | 36 | 29.96 | 0.0 | ||||||
| 05 | 21:33 | NW 5 | 10.00 | Partly Cloudy | SCT070 | 40.1 | 22.5 | 49% | 37 | 29.95 | 0.0 | ||||||
| 05 | 21:13 | NW 6 | 10.00 | Partly Cloudy | SCT075 | 41 | 21.9 | 47% | 38 | 29.94 | 0.0 | ||||||
| 05 | 20:53 | NW 7 | 10.00 | Partly Cloudy | SCT075 | 42.6 | 21.6 | 43% | 39 | 29.94 | 0.0 | ||||||
| 05 | 20:33 | NW 10 G 17 | 10.00 | Fair | CLR | 43.7 | 20.7 | 40% | 39 | 29.93 | 0.0 | ||||||
| 05 | 20:13 | NW 13 G 18 | 10.00 | Partly Cloudy | SCT060 | 44.6 | 21 | 39% | 39 | 29.92 | 0.0 | ||||||
| 05 | 19:53 | NW 15 G 20 | 10.00 | Partly Cloudy | SCT060 SCT075 | 45.1 | 21 | 38% | 39 | 29.92 | 0.0 | ||||||
| 05 | 19:33 | NW 15 | 10.00 | Mostly Cloudy | BKN075 | 46.2 | 21.6 | 38% | 40 | 29.91 | 0.0 | ||||||
| 05 | 19:13 | NW 12 G 20 | 10.00 | Overcast | SCT065 OVC075 | 46.8 | 21.2 | 36% | 42 | 29.91 | 0.0 | ||||||
| 05 | 18:53 | NW 14 | 10.00 | Overcast | SCT065 OVC075 | 46.9 | 21.4 | 50.5 | 46.9 | 36% | 42 | 29.9 | 0.0 | ||||
| 05 | 18:33 | NW 16 G 23 | 10.00 | Overcast | SCT065 OVC075 | 47.1 | 21 | 36% | 41 | 29.9 | 0.0 | ||||||
| 05 | 18:13 | NW 20 G 24 | 10.00 | Overcast | SCT065 OVC075 | 48 | 20.7 | 34% | 42 | 29.9 | 0.0 | ||||||
| 05 | 17:53 | NW 20 | 10.00 | Overcast | OVC065 | 48.2 | 20.3 | 33% | 42 | 29.89 | 0.0 | ||||||
| 05 | 17:33 | NW 17 G 21 | 10.00 | Overcast | OVC065 | 48.7 | 20.1 | 32% | 43 | 29.89 | 0.0 | ||||||
| 05 | 17:13 | NW 18 | 10.00 | Overcast | OVC065 | 48.4 | 19.6 | 32% | 42 | 29.89 | 0.0 | ||||||
| 05 | 16:53 | NW 18 G 23 | 10.00 | Overcast | OVC065 | 48.4 | 19.6 | 32% | 42 | 29.89 | 0.0 | ||||||
| 05 | 16:33 | NW 16 G 22 | 10.00 | Overcast | OVC065 | 49.1 | 19.8 | 31% | 44 | 29.9 | 0.0 | ||||||
| 05 | 16:13 | NW 16 | 10.00 | Overcast | OVC065 | 48.9 | 20.1 | 32% | 44 | 29.89 | 0.0 | ||||||
| 05 | 15:53 | NW 16 G 23 | 10.00 | Overcast | OVC065 | 48.2 | 20.8 | 34% | 43 | 29.9 | 0.0 | ||||||
| 05 | 15:33 | NW 21 G 24 | 10.00 | Overcast and Breezy | OVC075 | 49.3 | 20.5 | 32% | 43 | 29.9 | 0.0 | ||||||
| 05 | 15:13 | NW 14 G 25 | 10.00 | Overcast | OVC075 | 50.4 | 21.9 | 33% | 29.9 | 0.0 | |||||||
| 05 | 14:53 | NW 17 G 21 | 10.00 | Overcast | BKN060 OVC070 | 48.7 | 21.6 | 34% | 43 | 29.9 | 0.0 | ||||||
| 05 | 14:33 | W 17 G 22 | 10.00 | Overcast | SCT060 OVC070 | 48.6 | 22.5 | 36% | 43 | 29.9 | 0.0 | ||||||
| 05 | 14:13 | NW 10 G 24 | 10.00 | Overcast | SCT060 OVC080 | 48.4 | 22.6 | 36% | 44 | 29.9 | 0.0 | ||||||
| 05 | 13:53 | W 15 G 22 | 10.00 | Overcast | SCT060 OVC070 | 48.4 | 22.3 | 36% | 43 | 29.9 | 0.0 | ||||||
| 05 | 13:33 | NW 15 G 20 | 10.00 | Overcast | OVC060 | 48.4 | 21.7 | 35% | 43 | 29.9 | 0.0 | ||||||
| 05 | 13:13 | NW 13 G 20 | 10.00 | Overcast | BKN060 OVC075 | 48.2 | 21.7 | 35% | 43 | 29.9 | 0.0 | ||||||
| 05 | 12:53 | W 9 G 17 | 10.00 | Overcast | OVC060 | 47.5 | 21.4 | 48 | 36.7 | 36% | 44 | 29.9 | 0.0 | ||||
| 05 | 12:33 | NW 13 | 10.00 | Overcast | BKN060 OVC075 | 46.6 | 20.8 | 36% | 41 | 29.9 | 0.0 | ||||||
| 05 | 12:13 | W 12 | 10.00 | Overcast | BKN060 OVC075 | 46 | 22.5 | 39% | 41 | 29.91 | 0.0 | ||||||
| 05 | 11:53 | NW 12 G 18 | 10.00 | Overcast | OVC060 | 45.9 | 22.1 | 39% | 41 | 29.91 | 0.0 | ||||||
| 05 | 11:33 | N 10 G 18 | 10.00 | Overcast | OVC060 | 45.1 | 22.3 | 40% | 40 | 29.9 | 0.0 | ||||||
| 05 | 11:13 | NW 12 | 10.00 | Overcast | BKN060 OVC070 | 45 | 24.3 | 44% | 40 | 29.9 | 0.0 | ||||||
| 05 | 10:53 | NW 12 | 10.00 | Overcast | BKN060 OVC070 | 45.7 | 24.4 | 43% | 41 | 29.9 | 0.0 | ||||||
| 05 | 10:33 | NW 10 G 20 | 10.00 | Overcast | SCT048 OVC060 | 45.1 | 24.1 | 44% | 40 | 29.89 | 0.0 | ||||||
| 05 | 10:13 | NW 12 | 10.00 | Overcast | BKN048 OVC060 | 44.8 | 24.3 | 44% | 40 | 29.89 | 0.0 | ||||||
| 05 | 09:53 | NW 8 | 10.00 | Mostly Cloudy | SCT046 BKN055 | 44.2 | 24.6 | 46% | 40 | 29.89 | 0.0 | ||||||
| 05 | 09:33 | N 8 G 18 | 10.00 | Fair | CLR | 44.4 | 25.5 | 48% | 40 | 29.89 | 0.0 | ||||||
| 05 | 09:13 | NW 7 G 10 | 10.00 | Fair | CLR | 43.7 | 27 | 52% | 40 | 29.89 | 0.0 | ||||||
| 05 | 08:53 | W 10 | 10.00 | Fair | CLR | 42.6 | 28 | 56% | 37 | 29.88 | 0.0 | ||||||
| 05 | 08:13 | NW 8 | 10.00 | Fair | CLR | 40.8 | 27.9 | 60% | 36 | 29.87 | 0.0 | ||||||
| 05 | 07:53 | NW 6 | 10.00 | Fair | CLR | 39.4 | 27.7 | 63% | 36 | 29.86 | 0.0 | ||||||
| 05 | 07:33 | W 7 | 10.00 | Fair | CLR | 38.3 | 27.5 | 65% | 34 | 29.85 | 0.0 | ||||||
| 05 | 07:13 | W 7 | 10.00 | Fair | CLR | 37.2 | 26.6 | 66% | 32 | 29.85 | 0.0 | ||||||
| 05 | 06:53 | W 6 | 10.00 | Fair | CLR | 36.5 | 26.2 | 38.8 | 31.8 | 66% | 32 | 29.84 | 0.0 | ||||
| 05 | 06:33 | W 7 | 10.00 | Fair | CLR | 33.6 | 25.7 | 73% | 28 | 29.83 | 0.0 | ||||||
| 05 | 06:13 | NW 8 | 10.00 | Partly Cloudy | SCT049 | 32 | 25 | 75% | 25 | 29.82 | 0.0 | ||||||
| 05 | 05:53 | NW 7 | 10.00 | Fair | CLR | 31.8 | 24.6 | 75% | 26 | 29.82 | 0.0 | ||||||
| 05 | 05:33 | NW 7 | 10.00 | Fair | CLR | 32 | 25.2 | 76% | 26 | 29.82 | 0.0 | ||||||
| 05 | 05:13 | NW 6 | 10.00 | Fair | CLR | 33.1 | 24.8 | 72% | 28 | 29.82 | 0.0 | ||||||
| 05 | 04:53 | NW 6 | 10.00 | Fair | CLR | 34 | 25 | 70% | 29 | 29.81 | 0.0 | ||||||
| 05 | 04:33 | W 7 | 10.00 | Fair | CLR | 36.1 | 25.9 | 66% | 31 | 29.81 | 0.0 | ||||||
| 05 | 04:13 | NW 9 | 10.00 | Fair | CLR | 35.6 | 26.1 | 68% | 29 | 29.81 | 0.0 | ||||||
| 05 | 03:53 | W 8 | 10.00 | Fair | CLR | 35.2 | 26.6 | 71% | 29 | 29.8 | 0.0 | ||||||
| 05 | 03:33 | W 7 | 10.00 | Fair | CLR | 36.3 | 26.2 | 67% | 31 | 29.8 | 0.0 | ||||||
| 05 | 03:13 | W 5 | 10.00 | Fair | CLR | 34.7 | 26.2 | 71% | 31 | 29.8 | 0.0 | ||||||
| 05 | 02:53 | NW 8 | 10.00 | Fair | CLR | 35.1 | 26.2 | 70% | 29 | 29.8 | 0.0 | ||||||
| 05 | 02:33 | NW 9 | 10.00 | Fair | CLR | 38.5 | 27 | 63% | 33 | 29.8 | 0.0 | ||||||
| 05 | 02:13 | NW 8 | 10.00 | Fair | CLR | 35.6 | 26.1 | 68% | 30 | 29.79 | 0.0 | ||||||
| 05 | 01:53 | NW 8 | 10.00 | Fair | CLR | 35.6 | 25.5 | 67% | 30 | 29.8 | 0.0 | ||||||
| 05 | 01:33 | NW 8 | 10.00 | Fair | CLR | 34.2 | 24.8 | 69% | 28 | 29.8 | 0.0 | ||||||
| 05 | 01:13 | NW 8 | 10.00 | Fair | CLR | 34.9 | 24.6 | 66% | 29 | 29.8 | 0.0 | ||||||
| 05 | 00:53 | W 7 | 10.00 | Fair | CLR | 36.7 | 25.3 | 52.2 | 35.6 | 64% | 32 | 29.8 | 0.0 | ||||
| 05 | 00:33 | W 6 | 10.00 | Fair | CLR | 35.8 | 24.8 | 64% | 32 | 29.8 | 0.0 | ||||||
| 05 | 00:13 | W 5 | 10.00 | Fair | CLR | 38.1 | 24.6 | 58% | 35 | 29.8 | 0.0 | ||||||
| 04 | 23:53 | W 5 | 10.00 | Fair | CLR | 38.7 | 24.8 | 58% | 36 | 29.8 | 0.0 | ||||||
| 04 | 23:33 | W 5 | 10.00 | Fair | CLR | 38.5 | 24.6 | 58% | 36 | 29.8 | 0.0 | ||||||
| 04 | 23:13 | W 5 | 10.00 | Fair | CLR | 40.3 | 24.4 | 53% | 38 | 29.8 | 0.0 | ||||||
| 04 | 22:53 | NW 5 | 10.00 | Fair | CLR | 40.3 | 24.8 | 54% | 38 | 29.8 | 0.0 | ||||||
| 04 | 22:33 | NW 6 | 10.00 | Fair | CLR | 40.8 | 25.2 | 54% | 37 | 29.8 | 0.0 | ||||||
| 04 | 22:13 | NW 6 | 10.00 | Fair | CLR | 42.3 | 24.8 | 50% | 39 | 29.79 | 0.0 | ||||||
| 04 | 21:53 | NW 5 | 10.00 | Fair | CLR | 44.2 | 25 | 47% | 42 | 29.79 | 0.0 | ||||||
| 04 | 21:33 | NW 7 | 10.00 | Fair | CLR | 46.4 | 24.4 | 42% | 43 | 29.78 | 0.0 | ||||||
| 04 | 21:13 | NW 7 | 10.00 | Fair | CLR | 44.4 | 24.8 | 46% | 41 | 29.77 | 0.0 | ||||||
| 04 | 20:53 | NW 6 | 10.00 | Fair | CLR | 47.3 | 24.4 | 41% | 45 | 29.76 | 0.0 | ||||||
| 04 | 20:33 | NW 10 | 10.00 | Fair | CLR | 49.1 | 23.9 | 37% | 45 | 29.75 | 0.0 | ||||||
| 04 | 20:13 | NW 13 | 10.00 | Fair | CLR | 50.4 | 24.6 | 37% | 29.74 | 0.0 | |||||||
| 04 | 19:53 | NW 14 | 10.00 | Fair | CLR | 51.4 | 24.4 | 35% | 29.74 | 0.0 | |||||||
| 04 | 19:33 | NW 14 G 24 | 10.00 | Fair | CLR | 51.3 | 23.9 | 34% | 29.74 | 0.0 | |||||||
| 04 | 19:13 | NW 21 G 26 | 10.00 | Fair and Breezy | CLR | 52 | 24.8 | 35% | 29.73 | 0.0 | |||||||
| 04 | 18:53 | NW 20 G 25 | 10.00 | Partly Cloudy | SCT060 | 52.3 | 26.1 | 62.2 | 51.8 | 36% | 29.73 | 0.0 | |||||
| 04 | 18:33 | NW 21 G 25 | 10.00 | Fair and Breezy | CLR | 52 | 26.6 | 37% | 29.73 | 0.0 | |||||||
| 04 | 18:13 | NW 23 G 29 | 10.00 | Fair and Breezy | CLR | 52.9 | 26.4 | 36% | 29.73 | 0.0 | |||||||
| 04 | 17:53 | NW 30 G 36 | 10.00 | Partly Cloudy and Windy | SCT060 | 53.4 | 27.7 | 37% | 29.72 | 0.0 | |||||||
| 04 | 17:33 | NW 26 G 31 | 10.00 | Partly Cloudy and Windy | SCT060 | 54.9 | 29.7 | 38% | 29.71 | 0.0 | |||||||
| 04 | 17:13 | W 26 G 36 | 10.00 | Fair and Windy | CLR | 55.6 | 27.7 | 34% | 29.7 | 0.0 | |||||||
| 04 | 16:53 | NW 29 G 37 | 10.00 | Fair and Windy | CLR | 56.5 | 27.3 | 33% | 29.7 | 0.0 | |||||||
| 04 | 16:33 | W 31 G 38 | 10.00 | Fair and Windy | CLR | 56.8 | 27.5 | 33% | 29.69 | 0.0 | |||||||
| 04 | 16:13 | NW 26 G 35 | 10.00 | Partly Cloudy and Windy | SCT120 | 57.4 | 27.9 | 32% | 29.69 | 0.0 | |||||||
| 04 | 15:53 | NW 26 G 36 | 10.00 | Partly Cloudy and Windy | SCT120 | 58.6 | 27.3 | 30% | 29.69 | 0.0 | |||||||
| 04 | 15:33 | NW 26 G 33 | 10.00 | Partly Cloudy and Windy | SCT110 | 58.3 | 27.5 | 31% | 29.68 | 0.0 | |||||||
| 04 | 15:13 | NW 26 G 37 | 10.00 | Partly Cloudy and Windy | SCT110 | 58.6 | 27.3 | 30% | 29.68 | 0.0 | |||||||
| 04 | 14:53 | NW 23 G 32 | 10.00 | Fair and Breezy | CLR | 57.9 | 28.9 | 33% | 29.67 | 0.0 | |||||||
| 04 | 14:33 | NW 26 G 33 | 10.00 | Fair and Windy | CLR | 59.5 | 28.9 | 31% | 29.68 | 0.0 | |||||||
| 04 | 14:13 | NW 28 G 33 | 10.00 | Fair and Windy | CLR | 59.5 | 28 | 30% | 29.67 | 0.0 | |||||||
| 04 | 13:53 | NW 23 G 33 | 10.00 | Fair and Breezy | CLR | 58.8 | 25.9 | 28% | 29.67 | 0.0 | |||||||
| 04 | 13:33 | NW 26 G 36 | 10.00 | Fair and Windy | CLR | 60.1 | 23.2 | 24% | 29.65 | 0.0 | |||||||
| 04 | 13:13 | NW 31 G 37 | 10.00 | Fair and Windy | CLR | 62.1 | 23.7 | 23% | 29.64 | 0.0 | |||||||
| 04 | 12:53 | NW 24 G 29 | 10.00 | Fair and Breezy | CLR | 61 | 29.1 | 61.3 | 53.6 | 30% | 29.63 | 0.0 | |||||
| 04 | 12:33 | NW 25 G 31 | 10.00 | Fair and Breezy | CLR | 60.6 | 30.6 | 32% | 29.64 | 0.0 | |||||||
| 04 | 12:13 | NW 21 G 33 | 10.00 | Fair and Breezy | CLR | 60.1 | 30.9 | 33% | 29.63 | 0.0 | |||||||
| 04 | 11:53 | NW 21 G 31 | 10.00 | Fair and Breezy | CLR | 60.4 | 28.2 | 29% | 29.62 | 0.0 | |||||||
| 04 | 11:33 | NW 29 G 33 | 10.00 | Fair and Windy | CLR | 61.2 | 28.9 | 30% | 29.61 | 0.0 | |||||||
| 04 | 11:13 | NW 24 G 30 | 10.00 | Fair and Breezy | CLR | 60.8 | 31.3 | 33% | 29.6 | 0.0 | |||||||
| 04 | 10:53 | NW 20 G 31 | 10.00 | Fair | CLR | 59.5 | 31.3 | 34% | 29.6 | 0.0 | |||||||
| 04 | 10:33 | NW 21 G 28 | 10.00 | Fair and Breezy | CLR | 59.5 | 31.8 | 35% | 29.6 | 0.0 | |||||||
| 04 | 10:13 | NW 22 G 28 | 10.00 | Partly Cloudy and Breezy | SCT120 | 59.2 | 31.6 | 35% | 29.6 | 0.0 | |||||||
| 04 | 09:53 | NW 15 G 28 | 10.00 | Overcast | OVC120 | 57.6 | 31.5 | 37% | 29.6 | 0.0 | |||||||
| 04 | 09:33 | NW 18 G 23 | 10.00 | Mostly Cloudy | BKN120 | 56.5 | 30.2 | 37% | 29.59 | 0.0 | |||||||
| 04 | 09:13 | NW 16 G 24 | 10.00 | Mostly Cloudy | BKN120 | 57 | 31.8 | 39% | 29.59 | 0.0 | |||||||
| 04 | 08:53 | N 16 G 22 | 10.00 | Mostly Cloudy | BKN120 | 56.7 | 34.9 | 44% | 29.59 | 0.0 | |||||||
| 04 | 08:33 | NW 14 G 21 | 10.00 | Partly Cloudy | SCT120 | 56.3 | 39.9 | 54% | 29.58 | 0.0 | |||||||
| 04 | 08:13 | NW 10 | 10.00 | Partly Cloudy | SCT120 | 55.6 | 39.9 | 56% | 29.58 | 0.0 | |||||||
| 04 | 07:53 | NW 17 | 10.00 | Fair | CLR | 55.9 | 39.2 | 54% | 29.57 | 0.0 | |||||||
| 04 | 07:33 | W 16 | 10.00 | Fair | CLR | 54.3 | 37 | 52% | 29.56 | 0.0 | |||||||
| 04 | 07:13 | W 15 G 18 | 10.00 | Fair | CLR | 54.3 | 36 | 50% | 29.55 | 0.0 | |||||||
| 04 | 06:53 | W 14 | 10.00 | Fair | CLR | 53.1 | 35.8 | 54.3 | 48.4 | 52% | 29.53 | 0.0 | |||||
| 04 | 06:33 | W 13 G 24 | 10.00 | Fair | CLR | 54.1 | 36.1 | 51% | 29.53 | 0.0 | |||||||
| 04 | 06:13 | W 16 | 10.00 | Fair | CLR | 52.7 | 35.4 | 52% | 29.53 | 0.0 | |||||||
| 04 | 05:53 | SW 21 | 10.00 | Fair and Breezy | CLR | 53.1 | 34.7 | 50% | 29.51 | 0.0 | |||||||
| 04 | 05:33 | SW 22 | 10.00 | Fair and Breezy | CLR | 53.1 | 33.6 | 48% | 29.51 | 0.0 | |||||||
| 04 | 04:53 | SW 23 | 10.00 | Fair and Breezy | CLR | 53.6 | 32.2 | 44% | 29.53 | 0.0 | |||||||
| 04 | 04:33 | SW 22 | 10.00 | Fair and Breezy | CLR | 52.3 | 32.2 | 46% | 29.53 | 0.0 | |||||||
| 04 | 04:13 | SW 17 | 10.00 | Fair | CLR | 50.9 | 32.9 | 50% | 29.55 | 0.0 | |||||||
| 04 | 03:53 | SW 10 | 10.00 | Fair | CLR | 48.7 | 32.9 | 54% | 45 | 29.55 | 0.0 | ||||||
| 04 | 03:33 | SW 9 | 10.00 | Fair | CLR | 48.6 | 32.9 | 55% | 45 | 29.56 | 0.0 | ||||||
| 04 | 03:13 | SW 12 | 10.00 | Fair | CLR | 49.6 | 32.4 | 52% | 46 | 29.57 | 0.0 | ||||||
| 04 | 02:53 | SW 10 | 10.00 | Fair | CLR | 52.5 | 32 | 46% | 29.57 | 0.0 | |||||||
| Date | Time (cdt) | Wind (mph) | Vis. (mi.) | Weather | Sky Cond. | Air | Dwpt | Max. | Min. | Relative Humidity | Wind Chill (°F) | Heat Index (°F) | altimeter (in) | sea level (mb) | 1 hr | 3 hr | 6 hr |
| 6 hour | |||||||||||||||||
| Temperature (ºF) | Pressure | Precipitation (in) | |||||||||||||||